Location: Palmerston North
(40.3500°S, 175.6170°E)
Time: 11:02:32
(UTC+13:00)

Envisat - Pass Details

Date: 24 January 2019
Orbit: 764 x 766 km, 98.2° (Epoch: 19 February)

Event Time Altitude Azimuth Distance (km) Brightness Sun altitude
Rises 21:26:45 0° 174° (S) 3,272 6.7 -8.0°
Reaches altitude 10° 21:29:09 10° 180° (S) 2,338 6.0 -8.4°
Maximum altitude 21:34:03 46° 251° (WSW) 1,041 4.3 -9.1°
Drops below altitude 10° 21:38:54 10° 323° (NW) 2,311 5.5 -9.9°
Sets 21:41:16 0° 329° (NNW) 3,229 6.2 -10.2°
